Location: Dos Palmas
(32.4468°N, 116.8732°W)
Time: 00:45:49
(UTC+00:00)

Okean 1 Rocket - Pass Details

Date: 20 June 2021
Orbit: 607 x 633 km, 82.5° (Epoch: 01 August)

Event Time Altitude Azimuth Distance (km) Brightness Sun altitude
Rises 03:48:27 0° 1° (N) 2,884 7.0 -9.9°
Reaches altitude 10° 03:50:45 10° 7° (N) 1,979 6.1 -10.3°
Maximum altitude 03:54:58 47° 81° (E) 821 3.4 -11.0°
Enters shadow 03:58:36 14° 153° (SSE) 1,753 4.8 -11.6°
